TimeEST,TemperatureF,Dew PointF,Humidity,Sea Level PressureIn,VisibilityMPH,Wind Direction,Wind SpeedMPH,Gust SpeedMPH,PrecipitationIn,Events,Conditions,WindDirDegrees,DateUTC
12:54 AM,30.0,21.0,69,30.48,10.0,SSE,5.8,-,N/A,,Clear,150,2013-11-30 05:54:00
1:54 AM,28.9,21.0,72,30.45,10.0,SE,3.5,-,N/A,,Clear,130,2013-11-30 06:54:00
2:54 AM,28.9,21.0,72,30.45,10.0,SSE,3.5,-,N/A,,Clear,150,2013-11-30 07:54:00
3:54 AM,30.0,21.9,72,30.43,10.0,SSE,5.8,-,N/A,,Clear,160,2013-11-30 08:54:00
4:54 AM,28.0,21.9,78,30.41,10.0,Calm,Calm,-,N/A,,Clear,0,2013-11-30 09:54:00
5:54 AM,30.0,21.9,72,30.40,10.0,South,3.5,-,N/A,,Clear,180,2013-11-30 10:54:00
6:54 AM,30.0,21.9,72,30.40,10.0,Calm,Calm,-,N/A,,Clear,0,2013-11-30 11:54:00
7:54 AM,28.0,21.9,78,30.39,10.0,Calm,Calm,-,N/A,,Clear,0,2013-11-30 12:54:00
8:54 AM,30.0,23.0,75,30.38,10.0,Calm,Calm,-,N/A,,Clear,0,2013-11-30 13:54:00
9:54 AM,36.0,25.0,64,30.35,10.0,Variable,6.9,-,N/A,,Clear,0,2013-11-30 14:54:00
10:54 AM,42.1,26.1,53,30.33,10.0,SW,11.5,17.3,N/A,,Clear,220,2013-11-30 15:54:00
11:54 AM,45.0,26.1,48,30.30,10.0,SSW,10.4,18.4,N/A,,Clear,210,2013-11-30 16:54:00
12:54 PM,48.0,27.0,44,30.25,10.0,SSW,15.0,21.9,N/A,,Clear,200,2013-11-30 17:54:00
1:54 PM,50.0,26.1,39,30.20,10.0,SSW,12.7,20.7,N/A,,Clear,210,2013-11-30 18:54:00
2:54 PM,50.0,26.1,39,30.17,10.0,SW,12.7,20.7,N/A,,Clear,220,2013-11-30 19:54:00
3:54 PM,50.0,25.0,38,30.15,10.0,SSW,11.5,19.6,N/A,,Clear,210,2013-11-30 20:54:00
4:54 PM,46.9,26.1,44,30.15,10.0,SSW,8.1,-,N/A,,Clear,200,2013-11-30 21:54:00
5:54 PM,44.1,26.1,49,30.15,10.0,South,4.6,-,N/A,,Clear,190,2013-11-30 22:54:00
6:54 PM,41.0,26.1,55,30.16,10.0,South,3.5,-,N/A,,Clear,170,2013-11-30 23:54:00
7:54 PM,39.9,26.1,58,30.15,10.0,South,4.6,-,N/A,,Clear,180,2013-12-01 00:54:00
8:54 PM,39.0,26.1,60,30.14,10.0,SSW,3.5,-,N/A,,Clear,200,2013-12-01 01:54:00
9:54 PM,37.0,26.1,65,30.14,10.0,Calm,Calm,-,N/A,,Scattered Clouds,0,2013-12-01 02:54:00
10:54 PM,33.1,25.0,72,30.14,10.0,Calm,Calm,-,N/A,,Clear,0,2013-12-01 03:54:00
11:54 PM,37.0,25.0,62,30.13,10.0,Calm,Calm,-,N/A,,Scattered Clouds,0,2013-12-01 04:54:00